When you browse on this site, cookies collect data to enhance your experience and personalize the content and advertising you see.
Visit our Privacy Policy to learn more. By continuing to use the site, you agree to this use of cookies and data.
  • In United Kingdom
  • List of Countries
  • For 7 days
  • Water Temperature
  • Weather Map
  • Weather Widgets
  • user-avatar
    Login

    Hourly Weather Mayrhofen

    Today, 24 February, Monday

    Time Temperature Precipitation Wind Pressure Humidity
    00:00 +3°C° 0.1 mm 2 mps 618 mmHg 92%
    01:00 +2°C° 0.1 mm 2 mps 618 mmHg 93%
    02:00 +2°C° 0.4 mm 2 mps 618 mmHg 94%
    03:00 +2°C° 0.4 mm 2 mps 618 mmHg 95%
    04:00 +2°C° 0.4 mm 2 mps 619 mmHg 97%
    05:00 +2°C° 1 mm 2 mps 619 mmHg 97%
    06:00 +2°C° 1 mm 2 mps 619 mmHg 97%
    07:00 +1°C° 1 mm 2 mps 619 mmHg 97%
    08:00 +2°C° 0.6 mm 2 mps 619 mmHg 97%
    09:00 +3°C° 0.6 mm 1 mps 619 mmHg 97%
    10:00 +3°C° 0.6 mm 1 mps 619 mmHg 96%
    11:00 +4°C° 0.1 mm 1 mps 619 mmHg 95%
    12:00 +4°C° 0.1 mm 1 mps 619 mmHg 94%
    13:00 +5°C° 0.1 mm 1 mps 619 mmHg 93%
    14:00 +5°C° 0 mm 1 mps 618 mmHg 91%
    15:00 +5°C° 0 mm 1 mps 618 mmHg 90%
    16:00 +6°C° 0 mm 1 mps 617 mmHg 88%
    17:00 +3°C° 0 mm 2 mps 617 mmHg 87%
    18:00 +2°C° 0 mm 2 mps 616 mmHg 86%
    19:00 +1°C° 0 mm 2 mps 616 mmHg 85%
    20:00 +1°C° 0 mm 2 mps 615 mmHg 84%
    21:00 +1°C° 0 mm 2 mps 615 mmHg 83%
    22:00 +1°C° 0 mm 2 mps 614 mmHg 82%
    23:00 +1°C° 0 mm 2 mps 614 mmHg 83%

    Tomorrow, 25 February, Tuesday

    Time Temperature Precipitation Wind Pressure Humidity
    00:00 +1°C° 0 mm 2 mps 614 mmHg 84%
    01:00 -1°C° 0 mm 2 mps 613 mmHg 85%
    02:00 -1°C° 0 mm 2 mps 613 mmHg 86%
    03:00 -1°C° 0 mm 2 mps 612 mmHg 87%
    04:00 -1°C° 0 mm 2 mps 612 mmHg 88%
    05:00 -1°C° 0 mm 2 mps 612 mmHg 88%
    06:00 -1°C° 0 mm 2 mps 611 mmHg 89%
    07:00 -1°C° 0 mm 2 mps 611 mmHg 89%
    08:00 +2°C° 0 mm 1 mps 611 mmHg 88%
    09:00 +2°C° 0 mm 1 mps 611 mmHg 88%
    10:00 +3°C° 0 mm 1 mps 611 mmHg 87%
    11:00 +3°C° 0 mm 1 mps 610 mmHg 86%
    12:00 +4°C° 0 mm 1 mps 610 mmHg 86%
    13:00 +4°C° 0 mm 1 mps 610 mmHg 85%
    14:00 +4°C° 0.1 mm 1 mps 609 mmHg 87%
    15:00 +3°C° 0.1 mm 1 mps 609 mmHg 88%
    16:00 +3°C° 0.1 mm 1 mps 608 mmHg 90%
    17:00 +2°C° 0.3 mm 1 mps 608 mmHg 92%
    18:00 +2°C° 0.3 mm 1 mps 607 mmHg 94%
    19:00 +1°C° 0.3 mm 1 mps 607 mmHg 96%
    20:00 +1°C° 0.6 mm 1 mps 607 mmHg 96%
    21:00 0°C° 0.6 mm 1 mps 606 mmHg 97%
    22:00 0°C° 0.6 mm 1 mps 606 mmHg 97%
    23:00 0°C° 0.7 mm 1 mps 606 mmHg 97%

    Day after tomorrow, 26 February, Wednesday

    Time Temperature Precipitation Wind Pressure Humidity
    00:00 0°C° 0.7 mm 1 mps 605 mmHg 97%
    01:00 -1°C° 0.7 mm 1 mps 605 mmHg 97%
    02:00 -1°C° 1 mm 1 mps 604 mmHg 97%
    03:00 -1°C° 1 mm 1 mps 604 mmHg 96%
    04:00 -2°C° 1 mm 1 mps 603 mmHg 95%
    05:00 -3°C° 0.2 mm 1 mps 603 mmHg 94%
    06:00 -4°C° 0.2 mm 1 mps 602 mmHg 93%
    07:00 -6°C° 0.2 mm 1 mps 601 mmHg 91%
    08:00 -4°C° 0.4 mm 1 mps 601 mmHg 89%
    09:00 -5°C° 0.4 mm 2 mps 602 mmHg 87%
    10:00 -6°C° 0.4 mm 3 mps 602 mmHg 85%
    11:00 -6°C° 0.7 mm 3 mps 602 mmHg 83%
    12:00 -7°C° 0.7 mm 3 mps 601 mmHg 80%
    13:00 -8°C° 0.7 mm 3 mps 601 mmHg 78%
    14:00 -8°C° 0.7 mm 3 mps 601 mmHg 78%
    15:00 -9°C° 0.7 mm 3 mps 602 mmHg 79%
    16:00 -9°C° 0.7 mm 3 mps 602 mmHg 79%
    17:00 -10°C° 0.1 mm 3 mps 602 mmHg 81%
    18:00 -12°C° 0.1 mm 3 mps 602 mmHg 83%
    19:00 -12°C° 0.1 mm 2 mps 603 mmHg 85%
    20:00 -13°C° 0.3 mm 3 mps 603 mmHg 87%
    21:00 -13°C° 0.3 mm 3 mps 604 mmHg 89%
    22:00 -13°C° 0.3 mm 3 mps 605 mmHg 91%
    23:00 -12°C° 0.4 mm 3 mps 605 mmHg 92%

    27 February, Thursday

    Time Temperature Precipitation Wind Pressure Humidity
    00:00 -10°C° 0.4 mm 2 mps 606 mmHg 93%
    01:00 -10°C° 0.4 mm 2 mps 606 mmHg 93%
    02:00 -10°C° 0.4 mm 2 mps 606 mmHg 93%
    03:00 -10°C° 0.4 mm 2 mps 607 mmHg 92%
    04:00 -10°C° 0.4 mm 2 mps 607 mmHg 92%
    05:00 -12°C° 0.1 mm 2 mps 607 mmHg 92%
    06:00 -12°C° 0.1 mm 2 mps 608 mmHg 93%
    07:00 -11°C° 0.1 mm 1 mps 608 mmHg 93%
    08:00 -10°C° 0.1 mm 1 mps 609 mmHg 88%
    09:00 -8°C° 0.1 mm 1 mps 610 mmHg 82%
    10:00 -7°C° 0.1 mm 1 mps 610 mmHg 77%
    11:00 -6°C° 0 mm 1 mps 610 mmHg 69%
    12:00 -4°C° 0 mm 1 mps 610 mmHg 61%
    13:00 -3°C° 0 mm 1 mps 610 mmHg 53%
    14:00 -5°C° 0 mm 2 mps 610 mmHg 55%
    15:00 -5°C° 0 mm 2 mps 609 mmHg 58%
    16:00 -6°C° 0 mm 3 mps 608 mmHg 60%
    17:00 -7°C° 0.2 mm 3 mps 608 mmHg 66%
    18:00 -8°C° 0.2 mm 3 mps 607 mmHg 72%
    19:00 -10°C° 0.2 mm 4 mps 607 mmHg 79%
    20:00 -10°C° 0.9 mm 4 mps 607 mmHg 82%
    21:00 -10°C° 0.9 mm 4 mps 607 mmHg 85%
    22:00 -10°C° 0.9 mm 4 mps 607 mmHg 89%
    23:00 -9°C° 0.5 mm 3 mps 606 mmHg 89%

    28 February, Friday

    Time Temperature Precipitation Wind Pressure Humidity
    00:00 -9°C° 0.5 mm 3 mps 606 mmHg 90%
    01:00 -9°C° 0.5 mm 3 mps 606 mmHg 91%
    02:00 -9°C° 0.8 mm 3 mps 606 mmHg 92%
    03:00 -7°C° 0.8 mm 2 mps 606 mmHg 93%
    04:00 -7°C° 0.8 mm 2 mps 606 mmHg 93%
    05:00 -6°C° 1.2 mm 2 mps 606 mmHg 94%
    06:00 -6°C° 1.2 mm 2 mps 607 mmHg 95%
    07:00 -5°C° 1.2 mm 2 mps 607 mmHg 95%
    08:00 -2°C° 0.7 mm 1 mps 608 mmHg 95%
    09:00 0°C° 0.7 mm 1 mps 608 mmHg 95%
    10:00 +1°C° 0.7 mm 1 mps 609 mmHg 96%
    11:00 +2°C° 0 mm 1 mps 609 mmHg 95%
    12:00 +2°C° 0 mm 1 mps 609 mmHg 95%
    13:00 +3°C° 0 mm 1 mps 609 mmHg 94%
    14:00 +3°C° 0 mm 1 mps 609 mmHg 94%
    15:00 +3°C° 0 mm 1 mps 609 mmHg 94%
    16:00 +3°C° 0 mm 1 mps 609 mmHg 94%
    17:00 +2°C° 0 mm 1 mps 609 mmHg 93%
    18:00 +1°C° 0 mm 1 mps 609 mmHg 93%
    19:00 -1°C° 0 mm 1 mps 608 mmHg 93%
    20:00 -1°C° 0 mm 1 mps 608 mmHg 92%
    21:00 -4°C° 0 mm 2 mps 607 mmHg 91%
    22:00 -4°C° 0 mm 2 mps 607 mmHg 90%
    23:00 -5°C° 0 mm 2 mps 606 mmHg 90%

    29 February, Saturday

    Time Temperature Precipitation Wind Pressure Humidity
    00:00 -6°C° 0 mm 3 mps 606 mmHg 90%
    01:00 -6°C° 0 mm 3 mps 605 mmHg 90%
    02:00 -7°C° 0 mm 3 mps 605 mmHg 90%
    03:00 -7°C° 0 mm 3 mps 604 mmHg 90%
    04:00 -7°C° 0 mm 3 mps 604 mmHg 90%
    05:00 -7°C° 0 mm 3 mps 603 mmHg 90%
    06:00 -7°C° 0 mm 3 mps 603 mmHg 90%
    07:00 -7°C° 0 mm 3 mps 603 mmHg 90%
    08:00 -6°C° 0 mm 3 mps 603 mmHg 90%
    09:00 -5°C° 0 mm 4 mps 603 mmHg 90%
    10:00 -3°C° 0 mm 4 mps 604 mmHg 90%
    11:00 -2°C° 0.1 mm 3 mps 604 mmHg 92%
    12:00 -1°C° 0.1 mm 3 mps 604 mmHg 93%
    13:00 -1°C° 0.1 mm 2 mps 604 mmHg 94%
    14:00 -1°C° 0.6 mm 2 mps 604 mmHg 95%
    15:00 -2°C° 0.6 mm 2 mps 603 mmHg 95%
    16:00 -2°C° 0.6 mm 2 mps 603 mmHg 96%
    17:00 -3°C° 0.8 mm 2 mps 602 mmHg 96%
    18:00 -2°C° 0.8 mm 1 mps 602 mmHg 97%
    19:00 -3°C° 0.8 mm 1 mps 601 mmHg 97%
    20:00 -3°C° 0.8 mm 1 mps 601 mmHg 97%
    21:00 -3°C° 0.8 mm 1 mps 602 mmHg 97%
    22:00 -4°C° 0.8 mm 1 mps 602 mmHg 97%
    23:00 -4°C° 0.9 mm 1 mps 601 mmHg 97%
    Show more